Location: Cahas Mountain Overlook
(37.0833°N, 80.1000°W)
Time: 07:25:12
(UTC-04:00)

Explorer 7 - Pass Details

Date: 16 February 2026
Orbit: 430 x 540 km, 50.2° (Epoch: 14 March)

Event Time Altitude Azimuth Distance (km) Brightness Sun altitude
Rises 16:58:01 0° 274° (W) 2,442 11.3 11.1°
Reaches altitude 10° 17:00:37 10° 294° (WNW) 1,593 9.9 10.6°
Maximum altitude 17:03:10 18° 340° (NNW) 1,204 8.6 10.2°
Drops below altitude 10° 17:05:47 10° 25° (NNE) 1,644 8.8 9.7°
Sets 17:08:32 0° 45° (NE) 2,552 9.6 9.2°
